Location: Noverd
(38.0910°N, 121.6877°W)
Time: 01:50:50
(UTC+00:00)

Envisat - Pass Details

Date: 16 April 2026
Orbit: 761 x 762 km, 98.4° (Epoch: 19 May)

Event Time Altitude Azimuth Distance (km) Brightness Sun altitude
Rises 10:43:58 0° 12° (NNE) 3,231 7.0 -29.3°
Reaches altitude 10° 10:46:17 10° 13° (NNE) 2,301 6.1 -29.0°
Enters shadow 10:50:46 71° 14° (NNE) 808 3.1 -28.3°
